This is the latest recevied weather packets stored in our database for station/object N7SHZ. If no packets are shown the sender has not sent any weather packets the latest 1 day(s).
| Time | Temp. | Humidity | Pressure | Rain* | Wind** | Luminosity | Snow |
|---|---|---|---|---|---|---|---|
| 1836274796 | 12.78° C | 45% | 1041.4 hPa | - | 2.24 m/s, 83° | 0 W/m² | - |
| 1836274494 | 12.78° C | 45% | 1041.3 hPa | - | 2.68 m/s, 78° | 0 W/m² | - |
| 1836274347 | 12.78° C | 46% | 1041.1 hPa | - | 2.68 m/s, 72° | 0 W/m² | - |
| 1836274192 | 12.78° C | 46% | 1041.3 hPa | - | 4.02 m/s, 63° | 0 W/m² | - |
| 1836273892 | 12.78° C | 47% | 1041.4 hPa | - | 1.79 m/s, 50° | 0 W/m² | - |
| 1778052324 | -6.11° C | 97% | 1030.1 hPa | - | 14.31 m/s, 116° | 0 W/m² | - |
| 1778052022 | -6.11° C | 97% | 1029.7 hPa | - | 14.31 m/s, 116° | 0 W/m² | - |
| 1778051720 | -6.11° C | 97% | 1029.8 hPa | - | 14.31 m/s, 116° | 0 W/m² | - |
| 1778051417 | -6.11° C | 98% | 1029.9 hPa | - | 14.31 m/s, 116° | 0 W/m² | - |
| 1778051114 | -6.11° C | 98% | 1029.7 hPa | - | 14.31 m/s, 116° | 0 W/m² | - |
| 1778050811 | -5.56° C | 98% | 1029.8 hPa | - | 14.31 m/s, 116° | 0 W/m² | - |
| 1778050508 | -5.56° C | 98% | 1029.5 hPa | - | 14.31 m/s, 116° | 0 W/m² | - |
| 1778050205 | -5.56° C | 98% | 1029.4 hPa | - | 14.31 m/s, 116° | 0 W/m² | - |
| 1778049902 | -5° C | 98% | 1029.5 hPa | - | 14.31 m/s, 116° | 0 W/m² | - |
| 1778049597 | -5° C | 98% | 1029.7 hPa | - | 14.31 m/s, 116° | 0 W/m² | - |
| 1778049295 | -5° C | 98% | 1029.1 hPa | - | 14.31 m/s, 116° | 0 W/m² | - |
| 1778048993 | -5° C | 98% | 1028.7 hPa | - | 14.31 m/s, 116° | 0 W/m² | - |
| 1778048691 | -5° C | 98% | 1029 hPa | - | 14.31 m/s, 116° | 0 W/m² | - |
| 1778048387 | -5° C | 98% | 1029.3 hPa | - | 14.75 m/s, 101° | 0 W/m² | - |
| 1778048083 | -4.44° C | 98% | 1029 hPa | - | 13.86 m/s, 94° | 0 W/m² | - |
| 1778047782 | -4.44° C | 98% | 1029 hPa | - | 11.62 m/s, 103° | 0 W/m² | - |
| 1778047480 | -3.89° C | 99% | 1029.3 hPa | - | 11.62 m/s, 103° | 0 W/m² | - |
| 1778047176 | -3.89° C | 99% | 1029 hPa | - | 14.31 m/s, 101° | 0 W/m² | - |
| 1778046873 | -3.89° C | 99% | 1028.9 hPa | - | 12.96 m/s, 102° | 0 W/m² | - |
| 1778046570 | -3.89° C | 99% | 1029 hPa | - | 11.18 m/s, 103° | 0 W/m² | - |
* Rain since midnight (hover to see other rain measurements)
** Current wind speed in m/s (hover to see current wind gust speed)